AAL3315 KMIA-TNCM

Flight info

Callsign AAL3315
Flight time N/A
Altitude 33000
Route KLADA2 BITAC Y290 SLUGO ULUBA1
Aircraft A321/M-SDE3FGHIRWY/LB1

Departure

Time 2026-05-04 14:50
Airport Miami International Airport (KMIA)

Arrival

Time N/A
Airport Princess Juliana International Airport (TNCM)
Time Latitude Longitude Altitude Speed Heading
2026-05-04 14:11 25.79788 -80.28673 20 ft 0 kts 44°
2026-05-04 14:29 25.79773 -80.28687 21 ft 4 kts
2026-05-04 14:30 25.79755 -80.28677 22 ft 4 kts 295°
2026-05-04 14:30 25.79752 -80.28669 24 ft 2 kts 289°
2026-05-04 14:32 25.79695 -80.28678 21 ft 0 kts 77°
2026-05-04 14:41 25.79694 -80.28678 20 ft 0 kts 76°
2026-05-04 14:44 25.79695 -80.28678 20 ft 0 kts 76°
2026-05-04 14:44 25.79694 -80.28680 20 ft 0 kts 81°
2026-05-04 14:45 25.79694 -80.28681 20 ft 1 kts 81°
2026-05-04 14:45 25.79692 -80.28692 22 ft 0 kts 93°
2026-05-04 14:45 25.79691 -80.28675 20 ft 11 kts 94°
2026-05-04 14:46 25.79669 -80.28659 20 ft 2 kts 238°
2026-05-04 14:46 25.79663 -80.28671 21 ft 3 kts 246°
2026-05-04 14:46 25.79643 -80.28766 20 ft 28 kts 270°
2026-05-04 14:46 25.79691 -80.28985 21 ft 29 kts 292°
2026-05-04 14:47 25.79798 -80.29083 22 ft 19 kts
2026-05-04 14:47 25.79936 -80.29098 22 ft 22 kts 356°
2026-05-04 14:47 25.79997 -80.29221 22 ft 22 kts 274°
2026-05-04 14:47 25.79993 -80.29509 15 ft 38 kts 269°
2026-05-04 14:48 25.79984 -80.29721 15 ft 13 kts 286°
2026-05-04 14:48 25.80037 -80.29762 15 ft 4 kts
2026-05-04 14:48 25.80049 -80.29755 15 ft 0 kts 13°
2026-05-04 14:48 25.80052 -80.29753 15 ft 3 kts 20°
2026-05-04 14:49 25.80089 -80.29678 15 ft 20 kts 85°
2026-05-04 14:49 25.80107 -80.29276 20 ft 85 kts 88°
2026-05-04 14:49 25.80144 -80.28394 17 ft 142 kts 87°
2026-05-04 14:49 25.80202 -80.27125 95 ft 181 kts 86°
2026-05-04 14:50 25.80168 -80.25720 707 ft 182 kts 96°
2026-05-04 14:50 25.79708 -80.24419 1418 ft 181 kts 114°
2026-05-04 14:50 25.79127 -80.23140 1930 ft 191 kts 113°
2026-05-04 14:50 25.78500 -80.21746 2142 ft 211 kts 114°
2026-05-04 14:51 25.77803 -80.20199 2272 ft 232 kts 114°
2026-05-04 14:51 25.77045 -80.18515 2417 ft 257 kts 114°
2026-05-04 14:51 25.76203 -80.16705 2839 ft 270 kts 116°
2026-05-04 14:51 25.75292 -80.14853 3441 ft 275 kts 118°
2026-05-04 14:52 25.74356 -80.12989 4069 ft 278 kts 118°
2026-05-04 14:52 25.73424 -80.11100 4698 ft 281 kts 114°
2026-05-04 14:52 25.72706 -80.09063 5312 ft 285 kts 111°
2026-05-04 14:52 25.72003 -80.06962 5941 ft 289 kts 110°
2026-05-04 14:53 25.71307 -80.04859 6555 ft 292 kts 110°
2026-05-04 14:53 25.70605 -80.02728 7095 ft 296 kts 110°
2026-05-04 14:53 25.69888 -80.00551 7669 ft 299 kts 111°
2026-05-04 14:53 25.69168 -79.98369 8219 ft 303 kts 111°
2026-05-04 14:54 25.68438 -79.96163 8751 ft 307 kts 111°
2026-05-04 14:54 25.67694 -79.93921 9279 ft 311 kts 111°
2026-05-04 14:54 25.66941 -79.91652 9832 ft 316 kts 111°
2026-05-04 14:54 25.66176 -79.89341 10212 ft 327 kts 111°
2026-05-04 14:55 25.65367 -79.86905 10318 ft 347 kts 111°
2026-05-04 14:55 25.64497 -79.84296 10455 ft 364 kts 111°
2026-05-04 14:55 25.63614 -79.81650 10641 ft 377 kts 111°
2026-05-04 14:55 25.62684 -79.78867 11055 ft 383 kts 112°
2026-05-04 14:56 25.61756 -79.76084 11516 ft 387 kts 112°
2026-05-04 14:56 25.60819 -79.73275 11959 ft 391 kts 112°
2026-05-04 14:56 25.59868 -79.70430 12404 ft 395 kts 112°
2026-05-04 14:56 25.58891 -79.67572 12855 ft 399 kts 114°
2026-05-04 14:57 25.57862 -79.64706 13299 ft 403 kts 115°
2026-05-04 14:57 25.56795 -79.61815 13748 ft 406 kts 115°
2026-05-04 14:57 25.55712 -79.58913 14155 ft 410 kts 115°
2026-05-04 14:57 25.54618 -79.55985 14584 ft 412 kts 115°
2026-05-04 14:58 25.53526 -79.53044 15015 ft 415 kts 115°
2026-05-04 14:58 25.52431 -79.50070 15425 ft 417 kts 115°
2026-05-04 14:58 25.51339 -79.47088 15843 ft 419 kts 115°
2026-05-04 14:58 25.50241 -79.44091 16259 ft 421 kts 115°
2026-05-04 14:59 25.49137 -79.41081 16668 ft 423 kts 115°
2026-05-04 14:59 25.48027 -79.38053 17052 ft 426 kts 115°
2026-05-04 14:59 25.45782 -79.31938 17831 ft 430 kts 115°
2026-05-04 15:00 25.44650 -79.28861 18206 ft 433 kts 115°
2026-05-04 15:00 25.43509 -79.25768 18531 ft 435 kts 115°
2026-05-04 15:00 25.42398 -79.22750 18835 ft 437 kts 115°
2026-05-04 15:01 25.40100 -79.16485 19474 ft 440 kts 115°
2026-05-04 15:01 25.39330 -79.14396 19697 ft 441 kts 115°
2026-05-04 15:02 25.35502 -79.04065 20777 ft 446 kts 115°
2026-05-04 15:02 25.34326 -79.00889 21113 ft 447 kts 115°
2026-05-04 15:02 25.33146 -78.97709 21454 ft 447 kts 115°
2026-05-04 15:02 25.31963 -78.94525 21796 ft 448 kts 115°
2026-05-04 15:03 25.30774 -78.91331 22147 ft 449 kts 115°
2026-05-04 15:03 25.29588 -78.88142 22500 ft 449 kts 115°
2026-05-04 15:03 25.28397 -78.84938 22864 ft 449 kts 115°
2026-05-04 15:03 25.27208 -78.81738 23223 ft 449 kts 115°
2026-05-04 15:04 25.26024 -78.78558 23584 ft 448 kts 115°
2026-05-04 15:04 25.24836 -78.75376 23899 ft 448 kts 115°
2026-05-04 15:04 25.23648 -78.72196 24204 ft 448 kts 115°
2026-05-04 15:04 25.22459 -78.69021 24514 ft 447 kts 115°
2026-05-04 15:05 25.21274 -78.65848 24831 ft 447 kts 115°
2026-05-04 15:05 25.20090 -78.62679 25145 ft 446 kts 115°
2026-05-04 15:05 25.18906 -78.59513 25468 ft 445 kts 115°
2026-05-04 15:05 25.17719 -78.56358 25787 ft 444 kts 116°
2026-05-04 15:06 25.16474 -78.53188 26125 ft 443 kts 117°
2026-05-04 15:06 25.15208 -78.50090 26459 ft 441 kts 117°
2026-05-04 15:06 25.13925 -78.47018 26795 ft 440 kts 118°
2026-05-04 15:07 25.11365 -78.40914 27480 ft 436 kts 117°
2026-05-04 15:07 25.10102 -78.37873 27820 ft 435 kts 117°
2026-05-04 15:07 25.08853 -78.34845 28181 ft 433 kts 117°
2026-05-04 15:07 25.07615 -78.31831 28540 ft 430 kts 117°
2026-05-04 15:08 25.06385 -78.28826 28896 ft 428 kts 117°
2026-05-04 15:08 25.05163 -78.25836 29150 ft 428 kts 117°
2026-05-04 15:08 25.03937 -78.22842 29357 ft 430 kts 117°
2026-05-04 15:08 25.02697 -78.19832 29559 ft 431 kts 117°
2026-05-04 15:09 25.01450 -78.16817 29758 ft 433 kts 118°
2026-05-04 15:09 25.00195 -78.13794 29958 ft 434 kts 118°
2026-05-04 15:09 24.98938 -78.10762 30171 ft 435 kts 118°
2026-05-04 15:10 24.96426 -78.04695 30528 ft 436 kts 118°
2026-05-04 15:10 24.95161 -78.01635 30706 ft 437 kts 118°
2026-05-04 15:10 24.92636 -77.95535 31049 ft 438 kts 118°
2026-05-04 15:11 24.91372 -77.92489 31215 ft 439 kts 118°
2026-05-04 15:11 24.90102 -77.89432 31378 ft 439 kts 118°
2026-05-04 15:11 24.88829 -77.86367 31541 ft 440 kts 118°
2026-05-04 15:11 24.87553 -77.83294 31700 ft 441 kts 118°
2026-05-04 15:12 24.86277 -77.80228 31887 ft 441 kts 119°
2026-05-04 15:12 24.84991 -77.77145 32075 ft 442 kts 119°
2026-05-04 15:12 24.83704 -77.74061 32221 ft 443 kts 119°
2026-05-04 15:12 24.82416 -77.70974 32360 ft 444 kts 119°
2026-05-04 15:13 24.81128 -77.67889 32510 ft 444 kts 119°
2026-05-04 15:13 24.79835 -77.64788 32651 ft 445 kts 119°
2026-05-04 15:13 24.78543 -77.61690 32786 ft 446 kts 120°
2026-05-04 15:13 24.77247 -77.58589 32954 ft 446 kts 120°
2026-05-04 15:14 24.75949 -77.55486 33034 ft 449 kts 120°
2026-05-04 15:14 24.73241 -77.49234 33059 ft 457 kts 122°
2026-05-04 15:15 24.70329 -77.42932 33041 ft 467 kts 122°
2026-05-04 15:15 24.67839 -77.37594 33056 ft 476 kts 122°
2026-05-04 15:16 24.64811 -77.31030 33046 ft 487 kts 121°
2026-05-04 15:16 24.63285 -77.27696 33050 ft 492 kts 121°
2026-05-04 15:17 24.58598 -77.17420 33049 ft 503 kts 121°
2026-05-04 15:17 24.53889 -77.07163 33047 ft 503 kts 121°
2026-05-04 15:18 24.50716 -77.00292 33054 ft 503 kts 121°
2026-05-04 15:19 24.45978 -76.90002 33053 ft 504 kts 121°
2026-05-04 15:19 24.41222 -76.79722 33057 ft 504 kts 121°
2026-05-04 15:20 24.38047 -76.72869 33059 ft 504 kts 121°
2026-05-04 15:20 24.34871 -76.66029 33062 ft 503 kts 121°
2026-05-04 15:21 24.31667 -76.59144 33063 ft 503 kts 121°
2026-05-04 15:22 24.26889 -76.48887 33069 ft 503 kts 121°
2026-05-04 15:22 24.22113 -76.38644 33067 ft 503 kts 122°
2026-05-04 15:23 24.18920 -76.31821 33068 ft 503 kts 122°
2026-05-04 15:23 24.15723 -76.24999 33070 ft 503 kts 122°
2026-05-04 15:24 24.09327 -76.11358 33070 ft 503 kts 122°
2026-05-04 15:25 24.06124 -76.04545 33071 ft 503 kts 122°
2026-05-04 15:26 24.01325 -75.94337 33067 ft 503 kts 122°
2026-05-04 15:26 23.96500 -75.84127 33069 ft 503 kts 122°
2026-05-04 15:27 23.91668 -75.73930 33069 ft 503 kts 122°
2026-05-04 15:28 23.86821 -75.63692 33066 ft 504 kts 122°
2026-05-04 15:29 23.81982 -75.53488 33069 ft 504 kts 122°
2026-05-04 15:30 23.70644 -75.29724 33073 ft 504 kts 122°
2026-05-04 15:31 23.65780 -75.19546 33072 ft 504 kts 122°
2026-05-04 15:32 23.57639 -75.02600 33070 ft 504 kts 122°
2026-05-04 15:34 23.49503 -74.85696 33072 ft 505 kts 122°
2026-05-04 15:34 23.44588 -74.75503 33073 ft 504 kts 123°
2026-05-04 15:35 23.39680 -74.65357 33077 ft 504 kts 123°
2026-05-04 15:36 23.34761 -74.55226 33077 ft 504 kts 123°
2026-05-04 15:36 23.31488 -74.48488 33079 ft 504 kts 123°
2026-05-04 15:37 23.28211 -74.41745 33077 ft 503 kts 123°
2026-05-04 15:37 23.24940 -74.35015 33079 ft 503 kts 123°
2026-05-04 15:38 23.21668 -74.28295 33084 ft 503 kts 123°
2026-05-04 15:38 23.18382 -74.21584 33086 ft 502 kts 123°
2026-05-04 15:39 23.15102 -74.14882 33086 ft 502 kts 123°
2026-05-04 15:40 23.10183 -74.04842 33084 ft 501 kts 123°
2026-05-04 15:40 23.08542 -74.01503 33082 ft 501 kts 123°